Location: ???????
(52.3000°N, 54.4667°E)
Time: 20:12:54
(UTC+00:00)

USA 267 - Pass Details

Date: 24 January 2020
Orbit: 1099 x 1108 km, 123.0° (Epoch: 10 February)

Event Time Altitude Azimuth Distance (km) Brightness Sun altitude
Exits shadow 14:55:38 26° 61° (ENE) 2,024 4.1 -18.3°
Maximum altitude 14:59:37 77° 340° (NNW) 1,135 3.3 -18.9°
Drops below altitude 10° 15:06:09 10° 256° (WSW) 2,961 6.7 -19.9°
Sets 15:08:38 0° 255° (WSW) 3,919 7.7 -20.3°
